Weather History for Erie, CO

Change the Weather History Date:

Wednesday, July 24, 2013

  Actual Average (KBJC) Record (KBJC)
Temperature  
Mean Temperature 72 °F -  
Max Temperature 84 °F 85 °F 100 °F (2003)
Min Temperature 61 °F 61 °F 50 °F (2004)
Cooling Degree Days 8    
Growing Degree Days 22 (Base 50)    
Moisture  
Dew Point 53 °F    
Average Humidity 55    
Maximum Humidity 80    
Minimum Humidity 24    
Precipitation  
Precipitation 0.00 in - - ()
Sea Level Pressure  
Sea Level Pressure 30.17 in    
Wind  
Wind Speed 5 mph (NW)    
Max Wind Speed 22 mph    
Max Gust Speed 29 mph    
Visibility 10 miles    
Events Thunderstorm    
Averages and records for this station are not official NWS values.
T = Trace of Precipitation, MM = Missing Value Source: NWS Daily Summary

Daily Weather History Graph

Daily Weather History Graph

Search for Another Location

Airport:

Trip Planner

Search our weather history database for the weather conditions in past years. The results will help you decide how hot, cold, wet, or windy it might be!

Date:

Astronomy

Jul. 24, 2013 Rise Set
Actual Time 5:51 AM MDT 8:21 PM MDT
Civil Twilight 5:20 AM MDT 8:52 PM MDT
Nautical Twilight 4:42 AM MDT 9:30 PM MDT
Astronomical Twilight 3:58 AM MDT 10:13 PM MDT
Moon 9:28 PM MDT (7/24) 8:14 AM MDT (7/24)
Length of Visible Light 15h 31m
Length of Day
14h 29m
Waning Gibbous, 94% of the Moon is Illuminated
Jul 24
Waning Gibbous
Jul 29
Last Quarter
Aug 6
New
Aug 14
First Quarter
Aug 20
Full

Hourly Weather History & Observations

Time (MDT) Temp. Heat Index Dew Point Humidity Pressure Visibility Wind Dir Wind Speed Gust Speed Precip Events Conditions
12:15 AM 66.6 °F - 54.1 °F 64% 30.20 in 10.0 mi North 4.6 mph - N/A   Clear
12:35 AM 66.2 °F - 54.3 °F 65% 30.20 in 10.0 mi North 3.5 mph - N/A   Clear
12:55 AM 66.2 °F - 54.9 °F 67% 30.19 in 10.0 mi North 3.5 mph - N/A   Clear
1:15 AM 65.1 °F - 55.4 °F 71% 30.19 in 10.0 mi North 3.5 mph - N/A   Clear
1:35 AM 64.2 °F - 55.4 °F 73% 30.18 in 10.0 mi Calm Calm - N/A   Clear
1:55 AM 65.3 °F - 54.0 °F 67% 30.18 in 10.0 mi Calm Calm - N/A   Clear
2:15 AM 65.3 °F - 54.5 °F 68% 30.18 in 10.0 mi Calm Calm - N/A   Clear
2:35 AM 64.9 °F - 54.7 °F 69% 30.17 in 10.0 mi Calm Calm - N/A   Clear
2:55 AM 64.0 °F - 54.5 °F 71% 30.17 in 10.0 mi Calm Calm - N/A   Clear
3:15 AM 63.7 °F - 54.0 °F 71% 30.17 in 10.0 mi WNW 4.6 mph - N/A   Clear
3:35 AM 63.3 °F - 54.5 °F 73% 30.17 in 10.0 mi Calm Calm - N/A   Clear
3:55 AM 63.5 °F - 54.9 °F 73% 30.17 in 10.0 mi Calm Calm - N/A   Clear
4:15 AM 63.5 °F - 54.9 °F 73% 30.17 in 10.0 mi SSW 3.5 mph - N/A   Clear
4:35 AM 62.4 °F - 54.9 °F 76% 30.17 in 10.0 mi SW 3.5 mph - N/A   Clear
4:55 AM 62.4 °F - 55.4 °F 78% 30.18 in 10.0 mi WSW 3.5 mph - N/A   Clear
5:15 AM 62.8 °F - 54.9 °F 75% 30.18 in 10.0 mi WNW 5.8 mph - N/A   Clear
5:35 AM 63.0 °F - 54.9 °F 75% 30.19 in 10.0 mi West 3.5 mph - N/A   Clear
5:55 AM 63.3 °F - 55.4 °F 75% 30.19 in 10.0 mi Calm Calm - N/A   Clear
6:15 AM 62.8 °F - 56.5 °F 80% 30.20 in 10.0 mi North 4.6 mph - N/A   Clear
6:35 AM 63.1 °F - 56.8 °F 80% 30.20 in 10.0 mi Calm Calm - N/A   Clear
6:55 AM 64.6 °F - 57.2 °F 77% 30.19 in 10.0 mi NW 6.9 mph - N/A   Clear
7:15 AM 64.9 °F - 58.1 °F 78% 30.20 in 10.0 mi Calm Calm - N/A   Clear
7:35 AM 66.4 °F - 58.1 °F 75% 30.20 in 10.0 mi North 4.6 mph - N/A   Clear
7:55 AM 67.3 °F - 58.3 °F 73% 30.20 in 10.0 mi North 3.5 mph - N/A   Clear
8:15 AM 68.2 °F - 59.0 °F 72% 30.20 in 10.0 mi North 4.6 mph - N/A   Clear
8:35 AM 69.3 °F - 59.0 °F 70% 30.20 in 10.0 mi North 3.5 mph - N/A   Clear
8:55 AM 70.7 °F - 59.7 °F 68% 30.21 in 10.0 mi NNE 3.5 mph - N/A   Clear
9:15 AM 71.8 °F - 59.9 °F 66% 30.21 in 10.0 mi North 5.8 mph - N/A   Clear
9:35 AM 73.4 °F - 59.4 °F 61% 30.21 in 10.0 mi NNE 4.6 mph - N/A   Clear
9:55 AM 75.0 °F - 59.4 °F 58% 30.21 in 10.0 mi North 5.8 mph - N/A   Clear
10:15 AM 75.4 °F - 59.7 °F 58% 30.21 in 10.0 mi NNW 5.8 mph - N/A   Clear
10:35 AM 76.6 °F - 59.2 °F 55% 30.21 in 10.0 mi North 4.6 mph - N/A   Clear
10:55 AM 78.6 °F - 58.1 °F 49% 30.20 in 10.0 mi NW 4.6 mph - N/A   Clear
11:15 AM 79.0 °F - 58.3 °F 49% 30.20 in 10.0 mi NW 3.5 mph - N/A   Clear
11:35 AM 78.8 °F - 58.3 °F 49% 30.19 in 10.0 mi NNW 5.8 mph - N/A   Clear
11:55 AM 79.0 °F - 57.9 °F 48% 30.19 in 10.0 mi Calm Calm - N/A   Clear
12:15 PM 79.9 °F - 58.1 °F 47% 30.17 in 10.0 mi NNW 5.8 mph - N/A   Clear
12:35 PM 81.5 °F 81.6 °F 58.3 °F 45% 30.16 in 10.0 mi NW 5.8 mph - N/A   Clear
12:55 PM 81.5 °F 81.5 °F 57.9 °F 44% 30.16 in 10.0 mi West 3.5 mph - N/A   Clear
1:15 PM 81.0 °F 81.1 °F 57.9 °F 45% 30.15 in 10.0 mi North 4.6 mph - N/A   Clear
1:35 PM 84.0 °F 83.5 °F 57.7 °F 41% 30.15 in 10.0 mi Calm Calm - N/A   Clear
1:55 PM 81.5 °F 81.5 °F 57.7 °F 44% 30.16 in 10.0 mi Calm Calm - N/A   Clear
2:15 PM 79.9 °F - 57.9 °F 47% 30.16 in 10.0 mi WNW 5.8 mph - N/A Thunderstorm Clear
2:35 PM 79.7 °F - 58.1 °F 47% 30.16 in 10.0 mi NW 3.5 mph - N/A   Scattered Clouds
2:55 PM 79.9 °F - 58.1 °F 47% 30.14 in 10.0 mi West 5.8 mph - N/A   Scattered Clouds
3:15 PM 81.5 °F 81.5 °F 57.6 °F 44% 30.16 in 10.0 mi WSW 8.1 mph - N/A   Clear
3:35 PM 83.1 °F - 52.9 °F 35% 30.16 in 10.0 mi West 9.2 mph 16.1 mph N/A   Clear
3:55 PM 81.0 °F - 48.0 °F 31% 30.17 in 10.0 mi West 13.8 mph 20.7 mph N/A   Clear
4:15 PM 81.0 °F - 48.2 °F 32% 30.16 in 10.0 mi WNW 5.8 mph 9.2 mph N/A   Clear
4:35 PM 81.3 °F - 44.8 °F 28% 30.16 in 10.0 mi NW 6.9 mph - N/A   Clear
4:55 PM 80.6 °F - 49.8 °F 34% 30.16 in 10.0 mi SSW 10.4 mph 16.1 mph N/A   Clear
5:15 PM 81.5 °F - 41.0 °F 24% 30.14 in 10.0 mi South 13.8 mph 20.7 mph N/A   Clear
5:35 PM 79.7 °F - 43.2 °F 27% 30.13 in 10.0 mi South 16.1 mph 21.9 mph N/A   Clear
5:55 PM 79.0 °F - 43.9 °F 29% 30.11 in 10.0 mi SW 10.4 mph 17.3 mph N/A   Clear
6:15 PM 80.4 °F - 43.0 °F 26% 30.10 in 10.0 mi West 10.4 mph - N/A   Clear
6:35 PM 77.9 °F - 43.3 °F 29% 30.10 in 10.0 mi West 13.8 mph - N/A   Clear
6:55 PM 78.1 °F - 44.6 °F 30% 30.09 in 10.0 mi SSW 4.6 mph - N/A   Scattered Clouds
7:15 PM 79.7 °F - 42.8 °F 27% 30.09 in 10.0 mi South 10.4 mph 16.1 mph N/A   Scattered Clouds
7:35 PM 80.1 °F - 42.3 °F 26% 30.08 in 10.0 mi South 8.1 mph - N/A   Clear
7:55 PM 79.5 °F - 42.6 °F 27% 30.08 in 10.0 mi SSE 10.4 mph - N/A   Clear
8:15 PM 78.6 °F - 43.9 °F 29% 30.09 in 10.0 mi SSE 9.2 mph - N/A   Clear
8:35 PM 77.9 °F - 43.9 °F 30% 30.10 in 10.0 mi ESE 6.9 mph - N/A   Clear
8:55 PM 76.8 °F - 45.3 °F 33% 30.11 in 10.0 mi ESE 6.9 mph - N/A   Clear
9:15 PM 76.1 °F - 46.6 °F 35% 30.13 in 10.0 mi ENE 6.9 mph - N/A   Clear
9:35 PM 75.4 °F - 46.8 °F 36% 30.16 in 10.0 mi North 10.4 mph - N/A   Scattered Clouds
9:55 PM 70.2 °F - 53.4 °F 55% 30.18 in 10.0 mi North 21.9 mph 28.8 mph N/A   Scattered Clouds
10:15 PM 67.3 °F - 53.4 °F 61% 30.20 in 10.0 mi NNW 17.3 mph 28.8 mph N/A   Clear
10:35 PM 66.4 °F - 53.8 °F 64% 30.21 in 10.0 mi NNW 16.1 mph 24.2 mph N/A   Clear
10:55 PM 65.5 °F - 52.7 °F 63% 30.21 in 10.0 mi NNW 13.8 mph 25.3 mph N/A   Clear
11:15 PM 63.9 °F - 53.1 °F 68% 30.24 in 10.0 mi North 16.1 mph 25.3 mph N/A   Clear
11:35 PM 61.3 °F - 53.6 °F 76% 30.24 in 10.0 mi NNE 10.4 mph - N/A   Scattered Clouds
11:55 PM 61.0 °F - 54.5 °F 79% 30.25 in 10.0 mi North 11.5 mph - N/A   Mostly Cloudy